Location: Aulus
(42.7909°N, 1.3399°E)
Time: 07:54:42
(UTC+00:00)

deb Kosmos- 1980 - Pass Details

Date: 15 October 2025
Orbit: 834 x 854 km, 71.0° (Epoch: 17 November)

Event Time Altitude Azimuth Distance (km) Brightness Sun altitude
Rises 18:25:04 0° 349° (N) 3,404 ? -14.2°
Reaches altitude 10° 18:30:43 10° 34° (NE) 2,459 ? -15.2°
Maximum altitude 18:31:09 10° 39° (NE) 2,452 ? -15.3°
Drops below altitude 10° 18:31:35 10° 43° (NE) 2,457 ? -15.4°
Enters shadow 18:31:39 10° 44° (NE) 2,459 ? -15.4°
